Terminal Aerodrome Forecast
Issued by NWS Quad Cities IA IL

Home | Current Version | Previous Version | Text Only | Print | Product List | Glossary On
Versions: 1 2 3 4 5 6 7 8 9 10 11 12 13 14 15 16 17 18 19 20 21 22 23 24 25 26 27 28 29 30 31 32 33 34 35 36 37 38 39 40 41 42 43 44 45 46
000
FTUS43 KDVN 301731
TAFMLI
TAF
KMLI 301731Z 3018/3118 05012KT 6SM -RA BR OVC007
     FM302100 04012KT 4SM -RA BR OVC005
     FM310600 36013G17KT 3SM BR OVC003
     FM311600 35013G18KT 5SM BR OVC009=

USA.gov is the U.S. government's official web portal to all federal, state and local government web resources and services.